FW8149 Weather Reports


time (UTC)temp
F
wind
direction
speed
knots
gust
knots
rain 1hr
in
rain 24hr
in
rain mn
in
humidity
%
barometer
mb
20260508054512 47 34 0.0 1.7 0.00 0.00 0.00 88 1016.8
20260508054010 47 97 0.0 2.6 0.00 0.00 0.00 89 1016.7
20260508053510 47 65 0.0 2.6 0.00 0.00 0.00 89 1016.7
20260508053009 46 68 0.9 3.5 0.00 0.00 0.00 89 1016.8
20260508052511 46 97 0.0 3.5 0.00 0.00 0.00 89 1016.8
20260508052005 46 69 0.0 2.6 0.00 0.00 0.00 89 1016.8
20260508051504 46 67 0.9 2.6 0.00 0.00 0.00 90 1016.8
20260508051004 46 68 0.0 1.7 0.00 0.00 0.00 90 1016.8
20260508050505 45 68 0.0 2.6 0.00 0.00 0.00 90 1016.7
20260508050003 45 67 0.0 2.6 0.00 0.00 0.00 90 1016.6
20260508045503 45 71 0.0 1.7 0.00 0.00 0.00 90 1016.6
20260508045002 45 71 0.0 0.9 0.00 0.00 0.00 89 1016.6
20260508044502 45 71 0.0 0.9 0.00 0.00 0.00 89 1016.6
20260508044001 45 71 0.0 0.9 0.00 0.00 0.00 89 1016.6
20260508043501 44 71 0.0 0.9 0.00 0.00 0.00 89 1016.5
20260508043101 44 71 0.0 0.0 0.00 0.00 0.00 89 1016.6
20260508042600 44 71 0.0 0.0 0.00 0.00 0.00 89 1016.6
20260508042102 44 71 0.0 0.0 0.00 0.00 0.00 89 1016.5
20260508041605 44 71 0.0 0.0 0.00 0.00 0.00 89 1016.6
20260508041059 44 71 0.0 0.0 0.00 0.00 0.00 89 1016.6
20260508040559 44 71 0.0 0.0 0.00 0.00 0.00 89 1016.4
20260508040112 44 71 0.0 0.0 0.00 0.00 0.00 89 1016.4
20260508035559 44 71 0.0 0.0 0.00 0.00 0.00 89 1016.4
20260508035047 44 71 0.0 0.0 0.00 0.00 0.00 89 1016.4
20260508034551 44 71 0.0 0.0 0.00 0.00 0.00 89 1016.5
20260508034048 44 71 0.0 0.9 0.00 0.00 0.00 89 1016.5
20260508033546 44 71 0.0 0.9 0.00 0.00 0.00 89 1016.5
20260508033046 44 71 0.0 0.9 0.00 0.00 0.00 89 1016.5
20260508032546 44 71 0.0 0.9 0.00 0.00 0.00 89 1016.4
20260508032047 44 71 0.0 0.9 0.00 0.00 0.00 89 1016.5
20260508031545 44 71 0.0 0.9 0.00 0.00 0.00 89 1016.5
20260508031045 44 71 0.0 0.9 0.00 0.00 0.00 89 1016.5
20260508030545 44 71 0.0 0.9 0.00 0.00 0.00 89 1016.5
20260508030056 44 71 0.0 0.9 0.00 0.00 0.00 89 1016.6
20260508025545 44 71 0.0 0.9 0.00 0.00 0.00 89 1016.5
20260508025043 44 71 0.0 0.0 0.00 0.00 0.00 88 1016.4
20260508024554 44 71 0.0 0.0 0.00 0.00 0.00 88 1016.5
20260508024044 44 71 0.0 0.0 0.00 0.00 0.00 88 1016.5
20260508023543 44 71 0.0 0.0 0.00 0.00 0.00 88 1016.5
20260508023042 44 71 0.0 0.0 0.00 0.00 0.00 88 1016.5
20260508022543 44 71 0.0 0.0 0.00 0.00 0.00 88 1016.5
20260508022043 44 71 0.0 0.0 0.00 0.00 0.00 88 1016.5
20260508021542 44 71 0.0 0.9 0.00 0.00 0.00 88 1016.5
20260508021041 44 71 0.0 0.9 0.00 0.00 0.00 88 1016.4
20260508020541 44 71 0.0 0.0 0.00 0.00 0.00 87 1016.5
20260508020047 44 71 0.0 0.9 0.00 0.00 0.00 87 1016.5
20260508015541 44 71 0.0 0.9 0.00 0.00 0.00 87 1016.5
20260508015041 44 71 0.0 0.0 0.00 0.00 0.00 87 1016.5
20260508014540 44 71 0.0 0.0 0.00 0.00 0.00 87 1016.5
20260508014039 44 71 0.0 0.9 0.00 0.00 0.00 86 1016.5
20260508013538 44 71 0.0 0.0 0.00 0.00 0.00 86 1016.5
20260508013038 45 71 0.0 0.0 0.00 0.00 0.00 86 1016.5
20260508012537 45 71 0.0 0.0 0.00 0.00 0.00 85 1016.6
20260508012037 45 71 0.0 0.0 0.00 0.00 0.00 85 1016.6
20260508011548 45 71 0.0 0.0 0.00 0.00 0.00 85 1016.7
20260508011035 45 71 0.0 0.0 0.00 0.00 0.00 85 1016.6
20260508010535 45 71 0.0 0.0 0.00 0.00 0.00 85 1016.7
20260508010035 45 71 0.0 0.9 0.00 0.00 0.00 85 1016.6
20260508005539 46 71 0.0 0.9 0.00 0.00 0.00 85 1016.7
20260508005033 46 71 0.0 0.9 0.00 0.00 0.00 84 1016.7
20260508004545 46 71 0.0 0.9 0.00 0.00 0.00 84 1016.7
20260508004032 46 71 0.0 0.0 0.00 0.00 0.00 84 1016.7
20260508003533 46 71 0.0 0.9 0.00 0.00 0.00 83 1016.6
20260508003037 46 71 0.0 0.9 0.00 0.00 0.00 83 1016.7
20260508002529 47 71 0.0 0.0 0.00 0.00 0.00 83 1016.7
20260508002029 47 71 0.0 0.0 0.00 0.00 0.00 82 1016.8
20260508001528 47 71 0.0 0.0 0.00 0.00 0.00 82 1016.7
20260508001027 47 71 0.0 0.0 0.00 0.00 0.00 82 1016.7
20260508000530 48 71 0.0 0.0 0.00 0.00 0.00 82 1016.7
20260508000026 48 71 0.0 0.0 0.00 0.00 0.00 82 1016.6
20260507235527 48 71 0.0 0.0 0.00 0.00 0.00 82 1016.6
20260507235027 48 71 0.0 0.0 0.00 0.00 0.00 82 1016.7
20260507234522 48 71 0.0 0.0 0.00 0.00 0.00 81 1016.6
20260507234022 49 71 0.0 0.9 0.00 0.00 0.00 80 1016.7
20260507233521 49 71 0.0 0.9 0.00 0.00 0.00 80 1016.8
20260507233020 49 70 0.0 0.0 0.00 0.00 0.00 79 1016.9
20260507232520 50 70 0.0 0.9 0.00 0.00 0.00 80 1016.9
20260507232018 50 70 0.0 0.9 0.00 0.00 0.00 79 1016.8
20260507231518 50 70 0.0 0.9 0.00 0.00 0.00 79 1016.7
20260507231017 50 70 0.0 1.7 0.00 0.00 0.00 79 1016.7
20260507230518 51 70 0.0 1.7 0.00 0.00 0.00 79 1016.7
20260507230016 51 134 0.0 0.0 0.00 0.00 0.00 79 1016.6
20260507225515 51 134 0.0 0.0 0.00 0.00 0.00 79 1016.7
20260507225017 51 134 0.0 0.0 0.00 0.00 0.00 78 1016.9
20260507224517 51 134 0.0 0.9 0.00 0.00 0.00 79 1017.0
20260507224015 52 134 0.0 0.9 0.00 0.00 0.00 79 1017.0
20260507223514 52 134 0.0 0.0 0.00 0.00 0.00 78 1017.1
20260507223014 52 134 0.0 1.7 0.00 0.00 0.00 78 1017.2
20260507222514 52 134 0.0 1.7 0.00 0.00 0.00 78 1017.0
20260507222013 52 170 0.0 1.7 0.00 0.00 0.00 78 1017.0
20260507221516 52 172 0.0 0.9 0.00 0.00 0.00 78 1017.0
20260507221012 52 172 0.0 0.9 0.00 0.00 0.00 78 1017.0
20260507220513 52 172 0.0 0.9 0.00 0.00 0.00 78 1017.0
20260507220013 52 173 0.0 0.9 0.00 0.00 0.00 78 1017.0
20260507215513 52 173 0.0 0.9 0.00 0.00 0.00 78 1017.1
20260507215012 52 173 0.0 0.9 0.00 0.00 0.00 78 1017.1
20260507214512 52 173 0.0 0.0 0.00 0.00 0.00 77 1017.2
20260507214111 52 173 0.0 1.7 0.00 0.00 0.00 77 1017.2
20260507213513 52 173 0.0 1.7 0.00 0.00 0.00 77 1017.3
20260507213011 52 178 0.0 0.9 0.00 0.00 0.00 77 1017.2
20260507212510 53 178 0.0 2.6 0.00 0.00 0.00 77 1017.2
20260507212012 53 178 0.0 2.6 0.00 0.00 0.00 77 1017.2
20260507211510 53 133 0.0 2.6 0.00 0.00 0.00 77 1017.2
20260507211013 53 134 0.0 2.6 0.00 0.00 0.00 77 1017.2
20260507210509 53 163 0.0 2.6 0.00 0.00 0.00 77 1017.1
20260507210009 53 257 0.0 1.7 0.00 0.00 0.00 77 1017.0
20260507205509 53 153 0.0 1.7 0.00 0.00 0.00 76 1017.1
20260507205008 53 160 0.0 4.3 0.00 0.00 0.00 76 1016.9
20260507204508 53 161 0.0 4.3 0.00 0.00 0.00 76 1017.0
20260507204007 53 145 0.0 0.9 0.00 0.00 0.00 76 1017.0
20260507203510 53 143 0.0 1.7 0.00 0.00 0.00 76 1016.8
20260507203007 53 164 0.0 1.7 0.00 0.00 0.00 75 1016.8
20260507202507 53 130 0.0 3.5 0.00 0.00 0.00 75 1016.8
20260507202006 53 69 0.0 3.5 0.00 0.00 0.00 75 1016.8
20260507201507 53 189 0.0 2.6 0.00 0.00 0.00 75 1016.7
20260507201009 53 169 0.0 2.6 0.00 0.00 0.00 75 1016.7
20260507200507 54 155 0.0 2.6 0.00 0.00 0.00 75 1016.6
20260507200017 54 61 0.0 3.5 0.00 0.00 0.00 75 1016.5
20260507195506 54 195 0.0 3.5 0.00 0.00 0.00 74 1016.4
20260507195006 54 186 0.0 4.3 0.00 0.00 0.00 74 1016.4
20260507194506 54 153 0.0 3.5 0.00 0.00 0.00 74 1016.3
20260507194005 54 197 0.0 2.6 0.00 0.00 0.00 73 1016.1
20260507193505 54 174 0.0 4.3 0.00 0.00 0.00 73 1016.0
20260507193007 54 159 0.0 2.6 0.00 0.00 0.00 73 1016.0
20260507192508 55 159 0.0 4.3 0.00 0.00 0.00 73 1016.1
20260507192005 55 143 0.0 2.6 0.00 0.00 0.00 73 1016.1
20260507191504 55 175 0.0 2.6 0.00 0.00 0.00 72 1016.2
20260507191003 55 98 0.0 2.6 0.00 0.00 0.00 72 1016.3
20260507190503 55 159 0.0 3.5 0.00 0.00 0.00 72 1016.1
20260507190006 56 157 0.0 4.3 0.00 0.00 0.00 72 1016.1
20260507185501 56 155 0.9 4.3 0.00 0.00 0.00 72 1016.0
20260507185000 56 205 0.0 3.5 0.00 0.00 0.00 72 1015.9
20260507184600 56 159 0.0 3.5 0.00 0.00 0.00 71 1015.9
20260507184100 56 181 0.9 3.5 0.00 0.00 0.00 71 1016.0
20260507183559 56 163 0.9 4.3 0.00 0.00 0.00 71 1016.0
20260507183100 56 154 0.9 2.6 0.00 0.00 0.00 70 1015.9
20260507182557 57 162 0.0 3.5 0.00 0.00 0.00 71 1016.0
20260507182055 57 148 0.9 3.5 0.00 0.00 0.00 70 1016.0
20260507181555 57 214 0.0 3.5 0.00 0.00 0.00 70 1016.0
20260507181055 57 183 0.0 5.2 0.00 0.00 0.00 69 1015.9
20260507180555 57 232 0.9 5.2 0.00 0.00 0.00 69 1016.0
20260507175554 57 165 0.0 5.2 0.00 0.00 0.00 67 1016.0
20260507175054 57 82 1.7 6.1 0.00 0.00 0.00 67 1016.1
20260507174554 58 174 2.6 6.1 0.00 0.00 0.00 66 1016.0
20260507174054 58 182 0.9 5.2 0.00 0.00 0.00 66 1015.9
20260507173553 58 161 1.7 5.2 0.00 0.00 0.00 66 1015.9
20260507173056 58 100 1.7 7.0 0.00 0.00 0.00 66 1015.9
20260507172554 58 139 1.7 6.1 0.00 0.00 0.00 65 1015.8
20260507172053 58 178 1.7 7.0 0.00 0.00 0.00 65 1015.9
20260507171557 59 214 0.0 8.7 0.00 0.00 0.00 64 1015.9
20260507171053 59 240 1.7 8.7 0.00 0.00 0.00 63 1015.9
20260507170555 59 170 0.0 7.0 0.00 0.00 0.00 63 1015.8
20260507170052 59 153 0.9 4.3 0.00 0.00 0.00 63 1015.9
20260507165552 59 78 0.0 5.2 0.00 0.00 0.00 63 1015.8
20260507165054 59 196 0.9 5.2 0.00 0.00 0.00 62 1015.8
20260507164554 59 202 0.9 6.1 0.00 0.00 0.00 61 1015.9
20260507164050 59 180 0.9 6.1 0.00 0.00 0.00 61 1015.8
20260507163554 59 196 1.7 6.1 0.00 0.00 0.00 60 1015.8
20260507163051 59 205 1.7 6.1 0.00 0.00 0.00 60 1015.8
20260507162551 59 204 0.9 7.0 0.00 0.00 0.00 60 1015.8
20260507162053 60 180 2.6 8.7 0.00 0.00 0.00 60 1015.9
20260507161550 60 196 3.5 8.7 0.00 0.00 0.00 59 1015.8
20260507161052 60 193 1.7 6.1 0.00 0.00 0.00 59 1015.9
20260507160552 61 202 0.9 6.1 0.00 0.00 0.00 58 1016.0
20260507160058 61 92 0.0 7.8 0.00 0.00 0.00 58 1015.9
20260507155549 61 210 2.6 7.8 0.00 0.00 0.00 59 1016.0
20260507155049 60 222 1.7 6.1 0.00 0.00 0.00 61 1016.1
20260507154549 59 209 0.0 7.0 0.00 0.00 0.00 64 1016.0
20260507154050 58 208 0.9 7.0 0.00 0.00 0.00 64 1016.0
20260507153551 58 211 0.9 6.1 0.00 0.00 0.00 63 1015.9
20260507153052 58 164 0.9 6.1 0.00 0.00 0.00 61 1015.9
20260507152550 58 203 0.9 6.1 0.00 0.00 0.00 60 1015.8
20260507152048 58 221 0.9 5.2 0.00 0.00 0.00 60 1015.9
20260507151548 58 226 0.9 3.5 0.00 0.00 0.00 59 1015.7
20260507151048 59 233 0.9 4.3 0.00 0.00 0.00 59 1015.8
20260507150549 59 224 1.7 5.2 0.00 0.00 0.00 58 1015.8
20260507150047 60 212 0.9 7.0 0.00 0.00 0.00 57 1015.8
20260507145547 60 193 0.9 6.1 0.00 0.00 0.00 57 1015.9
20260507145046 60 244 0.0 5.2 0.00 0.00 0.00 57 1015.8
20260507144550 61 291 0.0 2.6 0.00 0.00 0.00 56 1015.9
20260507144046 61 143 0.0 3.5 0.00 0.00 0.00 56 1015.8
20260507143545 61 194 0.0 4.3 0.00 0.00 0.00 55 1015.9
20260507143045 62 182 0.0 4.3 0.00 0.00 0.00 54 1015.9
20260507142545 62 192 0.0 4.3 0.00 0.00 0.00 56 1015.9
20260507142045 63 256 0.0 6.1 0.00 0.00 0.00 55 1015.8
20260507141552 63 224 1.7 6.1 0.00 0.00 0.00 55 1016.0
20260507141044 63 182 0.0 7.8 0.00 0.00 0.00 56 1016.0
20260507140543 63 74 0.9 6.1 0.00 0.00 0.00 57 1016.0
20260507135542 62 65 0.9 6.1 0.00 0.00 0.00 59 1016.1
20260507135041 62 293 0.9 4.3 0.00 0.00 0.00 58 1016.1
20260507134541 63 309 0.0 4.3 0.00 0.00 0.00 59 1016.1
20260507134041 63 92 0.9 7.8 0.00 0.00 0.00 59 1016.2
20260507133542 62 153 1.7 7.8 0.00 0.00 0.00 59 1016.2
20260507133039 62 38 0.9 3.5 0.00 0.00 0.00 58 1016.2
20260507132538 62 150 0.0 4.3 0.00 0.00 0.00 58 1016.2
20260507132040 62 78 0.0 4.3 0.00 0.00 0.00 58 1016.3
20260507131538 62 48 0.9 4.3 0.00 0.00 0.00 60 1016.2
20260507131040 61 225 0.9 4.3 0.00 0.00 0.00 61 1016.3
20260507130534 60 37 0.0 5.2 0.00 0.00 0.00 60 1016.2
20260507130038 60 42 0.9 5.2 0.00 0.00 0.00 62 1016.2
20260507125534 60 200 0.0 4.3 0.00 0.00 0.00 62 1016.4
20260507125030 59 171 0.0 5.2 0.00 0.00 0.00 63 1016.4
20260507124529 59 249 0.0 2.6 0.00 0.00 0.00 63 1016.5
20260507124028 59 87 0.0 3.5 0.00 0.00 0.00 63 1016.6
20260507123529 58 55 0.9 4.3 0.00 0.00 0.00 64 1016.5
20260507123032 58 80 0.0 4.3 0.00 0.00 0.00 63 1016.6
20260507122528 58 67 0.9 4.3 0.00 0.00 0.00 65 1016.6
20260507122024 57 70 0.9 4.3 0.00 0.00 0.00 65 1016.6
20260507121523 57 20 0.9 2.6 0.00 0.00 0.00 65 1016.6
20260507121022 56 43 0.0 3.5 0.00 0.00 0.00 66 1016.6
20260507120521 56 46 1.7 3.5 0.00 0.00 0.00 66 1016.6
20260507120020 56 38 0.9 2.6 0.00 0.00 0.00 65 1016.7
20260507115519 56 36 0.9 5.2 0.00 0.00 0.00 66 1016.6
20260507115017 56 46 1.7 5.2 0.00 0.00 0.00 66 1016.6
20260507114516 56 59 0.0 2.6 0.00 0.00 0.00 67 1016.6
20260507114016 55 48 0.0 2.6 0.00 0.00 0.00 66 1016.6
20260507113514 55 49 1.7 2.6 0.00 0.00 0.00 66 1016.5
20260507113023 55 53 0.0 2.6 0.00 0.00 0.00 66 1016.5
20260507112514 55 52 0.0 1.7 0.00 0.00 0.00 66 1016.5
20260507112015 55 51 0.0 0.0 0.00 0.00 0.00 67 1016.6
20260507111518 55 52 0.0 1.7 0.00 0.00 0.00 67 1016.7
20260507111012 55 52 0.0 1.7 0.00 0.00 0.00 66 1016.7
20260507110517 55 53 0.0 2.6 0.00 0.00 0.00 67 1016.7
20260507110016 55 53 0.9 2.6 0.00 0.00 0.00 66 1016.8
20260507105513 55 68 0.0 2.6 0.00 0.00 0.00 66 1016.8
20260507105011 55 69 0.9 2.6 0.00 0.00 0.00 67 1016.8
20260507104513 55 70 0.9 3.5 0.00 0.00 0.00 67 1016.8
20260507104015 55 82 0.9 3.5 0.00 0.00 0.00 67 1016.9
20260507103510 55 51 0.0 2.6 0.00 0.00 0.00 68 1016.9
20260507103013 55 52 0.9 3.5 0.00 0.00 0.00 68 1016.9
20260507102517 55 57 1.7 4.3 0.00 0.00 0.00 68 1016.8
20260507102010 55 64 2.6 4.3 0.00 0.00 0.00 68 1016.9
20260507101511 55 51 1.7 4.3 0.00 0.00 0.00 68 1016.9
20260507101011 55 79 0.9 3.5 0.00 0.00 0.00 69 1016.9
20260507100510 55 64 0.0 2.6 0.00 0.00 0.00 69 1016.9
20260507100016 55 63 0.9 2.6 0.00 0.00 0.00 69 1016.9
20260507095609 55 177 0.0 2.6 0.00 0.00 0.00 69 1016.8
20260507095008 55 67 0.0 2.6 0.00 0.00 0.00 69 1016.8
20260507094507 55 321 0.0 1.7 0.00 0.00 0.00 70 1016.8
20260507094007 55 251 0.0 1.7 0.00 0.00 0.00 70 1016.8
20260507093509 55 150 0.0 1.7 0.00 0.00 0.00 70 1016.8
20260507093008 55 86 0.0 3.5 0.00 0.00 0.00 70 1016.7
20260507092507 55 52 0.0 3.5 0.00 0.00 0.00 70 1016.8
20260507092006 55 71 0.0 3.5 0.00 0.00 0.00 70 1016.8
20260507091506 55 72 0.0 3.5 0.00 0.00 0.00 69 1016.7
20260507091008 55 218 0.0 3.5 0.00 0.00 0.00 69 1016.8
20260507090506 55 228 0.9 3.5 0.00 0.00 0.00 69 1016.8
20260507090006 55 54 0.0 1.7 0.00 0.00 0.00 69 1016.8
20260507085506 55 84 0.0 2.6 0.00 0.00 0.00 69 1016.8
20260507085007 55 40 0.0 2.6 0.00 0.00 0.00 70 1016.7
20260507084504 55 228 0.0 0.9 0.00 0.00 0.00 70 1016.7
20260507084103 55 228 0.0 2.6 0.00 0.00 0.00 70 1016.7
20260507083035 55 228 0.9 2.6 0.00 0.00 0.00 71 1016.7
20260507082516 55 206 0.9 3.5 0.00 0.00 0.00 72 1016.8
20260507082014 55 103 0.0 3.5 0.00 0.00 0.00 71 1016.8
20260507081515 55 241 0.0 2.6 0.00 0.00 0.00 72 1016.8
20260507081014 55 242 0.0 2.6 0.00 0.00 0.00 71 1016.7
20260507080515 55 243 0.0 2.6 0.00 0.00 0.00 71 1016.7
20260507080012 55 249 0.0 3.5 0.00 0.00 0.00 72 1016.7
20260507075512 55 248 0.0 3.5 0.00 0.00 0.00 72 1016.7
20260507075011 55 221 0.0 2.6 0.00 0.00 0.00 73 1016.7
20260507074523 54 46 0.0 4.3 0.00 0.00 0.00 73 1016.6
20260507074007 54 101 0.9 4.3 0.00 0.00 0.00 74 1016.6
20260507073507 54 163 0.0 3.5 0.00 0.00 0.00 75 1016.6
20260507073006 53 48 0.9 4.3 0.00 0.00 0.00 76 1016.6
20260507072505 53 163 0.0 4.3 0.00 0.00 0.00 78 1016.6
20260507072006 52 200 0.9 4.3 0.00 0.00 0.00 79 1016.6
20260507071501 52 86 0.0 3.5 0.00 0.00 0.00 79 1016.6
20260507071101 52 96 0.9 3.5 0.00 0.00 0.00 80 1016.6
20260507070559 51 198 0.0 2.6 0.00 0.00 0.00 81 1016.5
20260507070057 51 146 0.0 2.6 0.00 0.00 0.00 81 1016.6
20260507065558 50 88 0.0 2.6 0.00 0.00 0.00 82 1016.6
20260507065055 50 89 0.0 2.6 0.00 0.00 0.00 83 1016.6
20260507064558 50 26 0.0 4.3 0.00 0.00 0.00 83 1016.5
20260507064054 49 202 0.0 2.6 0.00 0.00 0.00 83 1016.6
20260507063554 49 196 0.0 1.7 0.00 0.00 0.00 84 1016.4
20260507063055 49 153 0.0 0.0 0.00 0.00 0.00 85 1016.4
20260507062551 48 72 0.0 0.0 0.00 0.00 0.00 85 1016.5
20260507062050 48 64 0.0 0.0 0.00 0.00 0.00 86 1016.4
20260507061549 47 184 0.0 0.0 0.00 0.00 0.00 87 1016.4
20260507061047 47 71 0.0 0.0 0.00 0.00 0.00 87 1016.3
20260507060546 46 244 0.0 0.0 0.00 0.00 0.00 86 1016.3
20260507060045 46 244 0.0 0.0 0.00 0.00 0.00 85 1016.2
20260507055545 46 244 0.0 0.0 0.00 0.00 0.00 85 1016.3
20260507055043 46 244 0.0 0.0 0.00 0.00 0.00 85 1016.3